Jefferson, NC

5:55 AM EST on December 13, 2019 (GMT -0500)
Ashe County

Weather History for KGEV - August, 2019

Change the Weather History Date:

Sunday, August 4, 2019

  Actual Average Record
Temperature  
Mean Temperature 68 °F -  
Max Temperature 78 °F 80 °F 87 °F (1987)
Min Temperature 58 °F 58 °F 44 °F (1976)
Cooling Degree Days 3    
Growing Degree Days 18 (Base 50)    
Moisture  
Dew Point 62 °F    
Average Humidity 82    
Maximum Humidity 99    
Minimum Humidity 50    
Precipitation  
Precipitation 0.00 in - - ()
Sea Level Pressure  
Sea Level Pressure 30.11 in    
Wind  
Wind Speed 1 mph ()    
Max Wind Speed 9 mph    
Max Gust Speed -    
Visibility 9.1 miles    
Events Rain    
Averages and records for this station are not official NWS values.
T = Trace of Precipitation, MM = Missing Value Source: Averaged Metar Reports

Daily Weather History Graph

Daily Weather History Graph

Search for Another Location

Airport or City:

Astronomy

Aug. 04, 2019 Rise Set
Actual Time 6:34 AM EDT 8:28 PM EDT
Civil Twilight 6:06 AM EDT 8:56 PM EDT
Nautical Twilight 5:31 AM EDT 9:31 PM EDT
Astronomical Twilight 4:55 AM EDT 10:07 PM EDT
Moon 10:32 AM EDT (8/4) 11:14 PM EDT (8/4)
Length of Visible Light 14h 50m
Length of Day
13h 54m
Waxing Crescent, 18% of the Moon is Illuminated
Aug 4
Waxing Crescent
Aug 7
First Quarter
Aug 15
Full
Aug 23
Last Quarter
Aug 30
New

Hourly Weather History & Observations

Time (EDT) Temp. Dew Point Humidity Pressure Visibility Wind Dir Wind Speed Gust Speed Precip Events Conditions
12:15 AM 62.6 °F 61.3 °F 96% 30.13 in 10.0 mi Calm Calm - N/A   Clear
12:35 AM 63.7 °F 61.2 °F 91% 30.13 in 10.0 mi Calm Calm - N/A   Clear
12:55 AM 62.6 °F 61.7 °F 97% 30.13 in 10.0 mi Calm Calm - N/A   Clear
1:15 AM 62.4 °F 61.3 °F 96% 30.14 in 10.0 mi Calm Calm - N/A   Clear
1:35 AM 61.3 °F 61.0 °F 99% 30.14 in 4.0 mi Calm Calm - N/A   Clear
1:55 AM 61.9 °F 61.5 °F 99% 30.13 in 7.0 mi Calm Calm - N/A   Scattered Clouds
2:15 AM 62.6 °F 61.2 °F 95% 30.13 in 10.0 mi Calm Calm - N/A   Scattered Clouds
2:35 AM 60.8 °F 60.4 °F 99% 30.13 in 10.0 mi Calm Calm - N/A   Mostly Cloudy
2:55 AM 62.2 °F 61.0 °F 96% 30.12 in 10.0 mi Calm Calm - N/A   Scattered Clouds
3:15 AM 62.1 °F 61.2 °F 97% 30.12 in 10.0 mi Calm Calm - N/A   Scattered Clouds
3:35 AM 62.2 °F 60.4 °F 94% 30.11 in 10.0 mi Calm Calm - N/A   Clear
3:55 AM 61.2 °F 60.6 °F 98% 30.11 in 10.0 mi Calm Calm - N/A   Clear
4:15 AM 61.0 °F 59.9 °F 96% 30.10 in 7.0 mi Calm Calm - N/A   Clear
4:35 AM 59.9 °F 59.4 °F 98% 30.11 in 5.0 mi South 4.6 mph - N/A   Scattered Clouds
4:55 AM 59.2 °F 58.3 °F 97% 30.11 in 2.0 mi South 3.5 mph - N/A   Scattered Clouds
5:15 AM 62.2 °F 60.4 °F 94% 30.11 in 10.0 mi Calm Calm - N/A   Scattered Clouds
5:35 AM 61.7 °F 60.1 °F 94% 30.11 in 10.0 mi Calm Calm - N/A   Clear
5:55 AM 58.6 °F 57.7 °F 97% 30.11 in 0.8 mi Calm Calm - N/A   Mostly Cloudy
6:15 AM 58.8 °F 58.5 °F 99% 30.12 in 10.0 mi Calm Calm - N/A   Scattered Clouds
6:35 AM 59.2 °F 59.0 °F 99% 30.12 in 7.0 mi Calm Calm - N/A   Clear
6:55 AM 60.8 °F 59.9 °F 97% 30.12 in 10.0 mi Calm Calm - N/A   Clear
7:15 AM 58.8 °F 58.5 °F 99% 30.13 in 0.8 mi Calm Calm - N/A   Mostly Cloudy
7:35 AM 59.4 °F 59.0 °F 99% 30.13 in 1.2 mi Calm Calm - N/A   Scattered Clouds
7:55 AM 60.1 °F 59.2 °F 97% 30.13 in 7.0 mi Calm Calm - N/A   Scattered Clouds
8:15 AM 61.2 °F 60.3 °F 97% 30.13 in 10.0 mi Calm Calm - N/A   Clear
8:35 AM 63.5 °F 62.1 °F 95% 30.13 in 10.0 mi Calm Calm - N/A   Clear
8:55 AM 64.9 °F 63.3 °F 94% 30.13 in 10.0 mi Calm Calm - N/A   Clear
9:15 AM 67.5 °F 64.4 °F 90% 30.14 in 10.0 mi Calm Calm - N/A   Clear
9:35 AM 68.4 °F 63.3 °F 84% 30.13 in 10.0 mi Calm Calm - N/A   Clear
9:55 AM 70.5 °F 64.2 °F 80% 30.13 in 10.0 mi Calm Calm - N/A   Clear
10:15 AM 72.1 °F 63.0 °F 73% 30.14 in 10.0 mi Calm Calm - N/A   Clear
10:35 AM 73.0 °F 62.1 °F 68% 30.14 in 10.0 mi Calm Calm - N/A   Clear
10:55 AM 73.4 °F 63.7 °F 71% 30.14 in 10.0 mi NE 3.5 mph - N/A   Clear
11:15 AM 74.5 °F 63.5 °F 68% 30.14 in 10.0 mi NE 3.5 mph - N/A   Scattered Clouds
11:35 AM 74.7 °F 63.3 °F 68% 30.14 in 10.0 mi North 3.5 mph - N/A   Scattered Clouds
11:55 AM 74.7 °F 63.3 °F 68% 30.14 in 10.0 mi Calm Calm - N/A   Scattered Clouds
12:15 PM 74.8 °F 64.6 °F 70% 30.14 in 10.0 mi NE 4.6 mph - N/A   Scattered Clouds
12:55 PM 76.3 °F 65.1 °F 68% 30.13 in 10.0 mi ENE 4.6 mph - N/A   Scattered Clouds
1:15 PM 74.7 °F 63.1 °F 67% 30.13 in 10.0 mi NNE 4.6 mph - N/A   Scattered Clouds
1:35 PM 76.5 °F 60.6 °F 58% 30.12 in 10.0 mi NW 5.8 mph - N/A   Mostly Cloudy
1:55 PM 77.7 °F 59.2 °F 53% 30.11 in 10.0 mi WNW 6.9 mph - N/A   Scattered Clouds
2:15 PM 77.2 °F 58.1 °F 52% 30.10 in 10.0 mi North 4.6 mph - N/A   Clear
2:35 PM 78.1 °F 58.6 °F 51% 30.09 in 10.0 mi NNW 6.9 mph - N/A   Clear
2:55 PM 77.5 °F 57.7 °F 50% 30.08 in 10.0 mi NW 9.2 mph - N/A   Clear
3:15 PM 77.5 °F 59.0 °F 53% 30.08 in 10.0 mi NW 5.8 mph - N/A   Scattered Clouds
3:35 PM 78.3 °F 60.3 °F 54% 30.07 in 10.0 mi NNW 3.5 mph - N/A   Scattered Clouds
3:55 PM 77.0 °F 59.9 °F 55% 30.07 in 10.0 mi NW 6.9 mph - N/A   Clear
4:15 PM 76.5 °F 61.0 °F 59% 30.07 in 10.0 mi Calm Calm - N/A   Scattered Clouds
4:55 PM 75.6 °F 62.1 °F 63% 30.07 in 10.0 mi Calm Calm - N/A   Scattered Clouds
5:15 PM 75.9 °F 61.7 °F 61% 30.06 in 10.0 mi North 5.8 mph - N/A   Clear
5:35 PM 74.7 °F 62.1 °F 65% 30.07 in 10.0 mi NE 3.5 mph - N/A   Scattered Clouds
5:55 PM 73.9 °F 62.2 °F 67% 30.07 in 10.0 mi NE 4.6 mph - N/A   Clear
6:15 PM 74.3 °F 61.3 °F 64% 30.07 in 10.0 mi NE 4.6 mph - N/A   Scattered Clouds
6:35 PM 73.6 °F 62.2 °F 68% 30.06 in 10.0 mi NE 3.5 mph - N/A   Overcast
6:55 PM 72.9 °F 63.3 °F 72% 30.07 in 10.0 mi Calm Calm - N/A   Mostly Cloudy
7:15 PM 73.0 °F 62.2 °F 69% 30.08 in 10.0 mi Calm Calm - N/A   Overcast
7:35 PM 72.9 °F 63.0 °F 71% 30.08 in 10.0 mi Calm Calm - N/A   Overcast
7:55 PM 70.3 °F 61.3 °F 73% 30.08 in 10.0 mi Calm Calm - N/A Rain Light Rain
8:15 PM 70.3 °F 62.1 °F 75% 30.08 in 10.0 mi Calm Calm - N/A   Overcast
8:35 PM 69.1 °F 63.5 °F 82% 30.08 in 10.0 mi Calm Calm - N/A   Overcast
8:55 PM 67.8 °F 64.8 °F 90% 30.09 in 10.0 mi Calm Calm - N/A   Overcast
9:15 PM 67.3 °F 65.5 °F 94% 30.09 in 10.0 mi Calm Calm - N/A   Overcast
9:35 PM 66.4 °F 65.1 °F 96% 30.09 in 10.0 mi Calm Calm - N/A   Mostly Cloudy
9:55 PM 67.6 °F 64.0 °F 88% 30.10 in 10.0 mi Calm Calm - N/A   Mostly Cloudy
10:15 PM 67.1 °F 64.6 °F 92% 30.10 in 10.0 mi Calm Calm - N/A   Scattered Clouds
10:35 PM 64.9 °F 64.2 °F 98% 30.11 in 10.0 mi Calm Calm - N/A   Scattered Clouds
10:55 PM 65.7 °F 64.4 °F 96% 30.11 in 10.0 mi Calm Calm - N/A   Scattered Clouds
11:15 PM 65.7 °F 64.2 °F 95% 30.10 in 10.0 mi Calm Calm - N/A   Scattered Clouds
11:35 PM 65.7 °F 64.4 °F 96% 30.11 in 10.0 mi Calm Calm - N/A   Clear
11:55 PM 64.6 °F 63.9 °F 98% 30.10 in 7.0 mi Calm Calm - N/A   Clear